Location: Hawks Ness
(60.2333°N, 1.1667°W)
Time: 19:17:35
(UTC+00:00)

Cosmos 2228 - Pass Details

Date: 22 October 2019
Orbit: 588 x 620 km, 82.5° (Epoch: 17 November)

Event Time Altitude Azimuth Distance (km) Brightness Sun altitude
Rises 05:14:46 0° 341° (NNW) 2,856 6.3 -13.8°
Reaches altitude 10° 05:17:13 10° 330° (NNW) 1,944 5.3 -13.5°
Maximum altitude 05:20:51 27° 272° (W) 1,144 3.8 -13.0°
Drops below altitude 10° 05:24:27 10° 214° (SSW) 1,921 5.3 -12.6°
Sets 05:26:52 0° 202° (SSW) 2,815 6.2 -12.3°
